Simultaneous Nadir Overpasses (SNOs) Predictions

Prediction of SNOs between GOES-15 and TERRA Satellite Orbit:

Table of predicted SNOs for the next 14.0 days since TLE Epoch: 8/20/2022
Index Date Time (GOES-15) GOES-15 Lat,Lon TERRA Lat,Lon Distance(km) Time Diff (sec)
1 08/21/2022 06:49:54 0.19,-128.02 0.02,-128.69 77.11 80
2 08/23/2022 06:40:20 0.18,-128.00 0.68,-125.74 256.84 80
3 08/23/2022 18:58:55 -0.21,-128.06 0.39,-130.91 323.85 80
4 08/25/2022 18:49:20 -0.21,-128.04 -0.21,-127.95 9.91 80
5 08/27/2022 18:37:05 -0.21,-128.01 -0.82,-124.99 343.07 80
6 08/28/2022 06:55:49 0.24,-127.95 -0.24,-130.19 255.52 80
7 08/30/2022 06:46:14 0.24,-127.92 0.38,-127.24 77.38 80
8 09/01/2022 06:33:59 0.23,-127.89 1.01,-124.28 409.80 80
9 09/01/2022 18:52:34 -0.26,-127.93 0.06,-129.45 172.45 80
